When you browse on this site, cookies collect data to enhance your experience and personalize the content and advertising you see.
Visit our Privacy Policy to learn more. By continuing to use the site, you agree to this use of cookies and data.
  • In Denmark
  • List of Countries
  • For 7 days
  • Water Temperature
  • Weather Map
  • Weather Widgets
  • user-avatar
    Login

    Hourly Weather Grzymalin

    Today, 15 October, Tuesday

    Time Temperature Precipitation Wind Pressure Humidity
    00:00 +16°C° 0 mm 3 mps 749 mmHg 72%
    01:00 +16°C° 0 mm 3 mps 749 mmHg 77%
    02:00 +16°C° 0 mm 3 mps 748 mmHg 78%
    03:00 +16°C° 0 mm 3 mps 748 mmHg 78%
    04:00 +14°C° 0 mm 3 mps 747 mmHg 78%
    05:00 +14°C° 0 mm 3 mps 747 mmHg 79%
    06:00 +14°C° 0 mm 3 mps 747 mmHg 80%
    07:00 +14°C° 0 mm 3 mps 747 mmHg 80%
    08:00 +17°C° 0 mm 3 mps 747 mmHg 74%
    09:00 +18°C° 0 mm 4 mps 747 mmHg 67%
    10:00 +20°C° 0 mm 4 mps 746 mmHg 61%
    11:00 +21°C° 0 mm 5 mps 746 mmHg 57%
    12:00 +22°C° 0 mm 5 mps 746 mmHg 54%
    13:00 +23°C° 0 mm 5 mps 745 mmHg 51%
    14:00 +22°C° 0 mm 4 mps 745 mmHg 54%
    15:00 +22°C° 0 mm 4 mps 744 mmHg 56%
    16:00 +21°C° 0 mm 3 mps 744 mmHg 59%
    17:00 +20°C° 0 mm 3 mps 744 mmHg 63%
    18:00 +19°C° 0 mm 3 mps 744 mmHg 67%
    19:00 +17°C° 0 mm 3 mps 744 mmHg 71%
    20:00 +17°C° 0 mm 3 mps 744 mmHg 72%
    21:00 +17°C° 0 mm 3 mps 743 mmHg 73%
    22:00 +15°C° 0 mm 4 mps 743 mmHg 74%
    23:00 +16°C° 0 mm 3 mps 743 mmHg 77%

    Tomorrow, 16 October, Wednesday

    Time Temperature Precipitation Wind Pressure Humidity
    00:00 +14°C° 0 mm 3 mps 743 mmHg 80%
    01:00 +14°C° 0 mm 3 mps 743 mmHg 83%
    02:00 +14°C° 0 mm 3 mps 743 mmHg 84%
    03:00 +14°C° 0 mm 4 mps 743 mmHg 85%
    04:00 +14°C° 0 mm 4 mps 743 mmHg 86%
    05:00 +14°C° 0 mm 5 mps 744 mmHg 82%
    06:00 +15°C° 0 mm 6 mps 744 mmHg 77%
    07:00 +15°C° 0 mm 6 mps 745 mmHg 73%
    08:00 +15°C° 0 mm 7 mps 746 mmHg 72%
    09:00 +15°C° 0 mm 7 mps 747 mmHg 71%
    10:00 +15°C° 0 mm 8 mps 747 mmHg 70%
    11:00 +15°C° 0 mm 7 mps 748 mmHg 69%
    12:00 +15°C° 0 mm 6 mps 748 mmHg 68%
    13:00 +14°C° 0 mm 6 mps 749 mmHg 67%
    14:00 +15°C° 0 mm 6 mps 749 mmHg 64%
    15:00 +15°C° 0 mm 5 mps 749 mmHg 62%
    16:00 +15°C° 0 mm 5 mps 749 mmHg 60%
    17:00 +14°C° 0 mm 5 mps 749 mmHg 62%
    18:00 +13°C° 0 mm 4 mps 749 mmHg 65%
    19:00 +12°C° 0 mm 4 mps 749 mmHg 67%
    20:00 +12°C° 0 mm 4 mps 750 mmHg 67%
    21:00 +12°C° 0 mm 4 mps 750 mmHg 67%
    22:00 +12°C° 0 mm 4 mps 750 mmHg 67%
    23:00 +11°C° 0 mm 4 mps 751 mmHg 69%

    Day after tomorrow, 17 October, Thursday

    Time Temperature Precipitation Wind Pressure Humidity
    00:00 +11°C° 0 mm 3 mps 751 mmHg 71%
    01:00 +11°C° 0 mm 3 mps 751 mmHg 74%
    02:00 +11°C° 0 mm 3 mps 751 mmHg 74%
    03:00 +11°C° 0 mm 3 mps 751 mmHg 75%
    04:00 +10°C° 0 mm 2 mps 751 mmHg 75%
    05:00 +12°C° 0 mm 2 mps 751 mmHg 75%
    06:00 +12°C° 0 mm 2 mps 751 mmHg 74%
    07:00 +12°C° 0 mm 2 mps 751 mmHg 73%
    08:00 +14°C° 0 mm 2 mps 751 mmHg 67%
    09:00 +16°C° 0 mm 2 mps 751 mmHg 61%
    10:00 +18°C° 0 mm 2 mps 752 mmHg 55%
    11:00 +19°C° 0 mm 2 mps 752 mmHg 51%
    12:00 +20°C° 0 mm 2 mps 752 mmHg 47%
    13:00 +21°C° 0 mm 2 mps 752 mmHg 43%
    14:00 +20°C° 0 mm 2 mps 751 mmHg 47%
    15:00 +19°C° 0 mm 2 mps 751 mmHg 51%
    16:00 +19°C° 0 mm 1 mps 751 mmHg 54%
    17:00 +18°C° 0 mm 1 mps 751 mmHg 57%
    18:00 +16°C° 0 mm 1 mps 752 mmHg 60%
    19:00 +15°C° 0 mm 1 mps 752 mmHg 63%
    20:00 +15°C° 0 mm 1 mps 752 mmHg 65%
    21:00 +14°C° 0 mm 1 mps 752 mmHg 67%
    22:00 +14°C° 0 mm 1 mps 752 mmHg 68%
    23:00 +13°C° 0 mm 1 mps 752 mmHg 69%

    18 October, Friday

    Time Temperature Precipitation Wind Pressure Humidity
    00:00 +13°C° 0 mm 1 mps 752 mmHg 70%
    01:00 +13°C° 0 mm 1 mps 752 mmHg 71%
    02:00 +13°C° 0 mm 1 mps 752 mmHg 72%
    03:00 +13°C° 0 mm 1 mps 752 mmHg 72%
    04:00 +13°C° 0 mm 1 mps 752 mmHg 73%
    05:00 +13°C° 0 mm 1 mps 752 mmHg 73%
    06:00 +13°C° 0 mm 1 mps 752 mmHg 73%
    07:00 +13°C° 0 mm 1 mps 752 mmHg 73%
    08:00 +14°C° 0 mm 1 mps 752 mmHg 69%
    09:00 +16°C° 0 mm 1 mps 752 mmHg 64%
    10:00 +18°C° 0 mm 1 mps 752 mmHg 59%
    11:00 +19°C° 0 mm 1 mps 752 mmHg 56%
    12:00 +20°C° 0 mm 1 mps 752 mmHg 54%
    13:00 +21°C° 0 mm 1 mps 751 mmHg 51%
    14:00 +19°C° 0 mm 2 mps 751 mmHg 54%
    15:00 +19°C° 0 mm 2 mps 751 mmHg 57%
    16:00 +19°C° 0 mm 2 mps 751 mmHg 59%
    17:00 +18°C° 0 mm 2 mps 751 mmHg 60%
    18:00 +17°C° 0 mm 2 mps 751 mmHg 61%
    19:00 +16°C° 0 mm 2 mps 751 mmHg 62%
    20:00 +16°C° 0 mm 1 mps 751 mmHg 63%
    21:00 +16°C° 0 mm 1 mps 751 mmHg 63%
    22:00 +15°C° 0 mm 1 mps 751 mmHg 63%
    23:00 +15°C° 0 mm 1 mps 751 mmHg 64%

    19 October, Saturday

    Time Temperature Precipitation Wind Pressure Humidity
    00:00 +15°C° 0 mm 1 mps 750 mmHg 65%
    01:00 +15°C° 0 mm 1 mps 750 mmHg 66%
    02:00 +15°C° 0 mm 1 mps 750 mmHg 67%
    03:00 +15°C° 0 mm 1 mps 750 mmHg 68%
    04:00 +15°C° 0 mm 1 mps 750 mmHg 69%
    05:00 +14°C° 0 mm 1 mps 750 mmHg 72%
    06:00 +14°C° 0 mm 1 mps 749 mmHg 74%
    07:00 +14°C° 0 mm 2 mps 749 mmHg 77%
    08:00 +15°C° 0 mm 2 mps 749 mmHg 73%
    09:00 +16°C° 0 mm 2 mps 749 mmHg 68%
    10:00 +17°C° 0 mm 2 mps 749 mmHg 64%
    11:00 +18°C° 0 mm 2 mps 749 mmHg 60%
    12:00 +19°C° 0 mm 2 mps 749 mmHg 56%
    13:00 +21°C° 0 mm 1 mps 748 mmHg 53%
    14:00 +21°C° 0 mm 1 mps 748 mmHg 55%
    15:00 +20°C° 0 mm 1 mps 748 mmHg 58%
    16:00 +20°C° 0 mm 1 mps 747 mmHg 61%
    17:00 +18°C° 0 mm 1 mps 747 mmHg 66%
    18:00 +16°C° 0 mm 1 mps 747 mmHg 71%
    19:00 +15°C° 0 mm 2 mps 747 mmHg 76%
    20:00 +14°C° 0 mm 2 mps 747 mmHg 79%
    21:00 +14°C° 0 mm 1 mps 747 mmHg 81%
    22:00 +13°C° 0 mm 1 mps 747 mmHg 83%
    23:00 +13°C° 0 mm 1 mps 746 mmHg 85%

    20 October, Sunday

    Time Temperature Precipitation Wind Pressure Humidity
    00:00 +13°C° 0 mm 2 mps 746 mmHg 86%
    01:00 +13°C° 0 mm 2 mps 746 mmHg 87%
    02:00 +12°C° 0 mm 2 mps 746 mmHg 88%
    03:00 +12°C° 0 mm 2 mps 745 mmHg 89%
    04:00 +12°C° 0 mm 2 mps 745 mmHg 90%
    05:00 +12°C° 0 mm 2 mps 746 mmHg 90%
    06:00 +11°C° 0 mm 3 mps 746 mmHg 90%
    07:00 +11°C° 0 mm 3 mps 746 mmHg 90%
    08:00 +12°C° 0 mm 4 mps 747 mmHg 84%
    09:00 +14°C° 0 mm 4 mps 747 mmHg 78%
    10:00 +15°C° 0 mm 4 mps 748 mmHg 72%
    11:00 +17°C° 0 mm 4 mps 748 mmHg 68%
    12:00 +17°C° 0 mm 4 mps 749 mmHg 64%
    13:00 +18°C° 0 mm 4 mps 749 mmHg 59%
    14:00 +17°C° 0 mm 3 mps 749 mmHg 61%
    15:00 +17°C° 0 mm 3 mps 749 mmHg 63%
    16:00 +16°C° 0 mm 2 mps 750 mmHg 65%
    17:00 +15°C° 0 mm 1 mps 750 mmHg 69%
    18:00 +14°C° 0 mm 1 mps 751 mmHg 73%
    19:00 +12°C° 0 mm 0 mps 751 mmHg 76%
    20:00 +12°C° 0 mm 1 mps 751 mmHg 78%
    21:00 +12°C° 0 mm 1 mps 751 mmHg 79%
    22:00 +12°C° 0 mm 1 mps 751 mmHg 81%
    23:00 +12°C° 0 mm 1 mps 751 mmHg 81%
    Show more